Trenton, NJ

3:34 AM EST on December 06, 2019 (GMT -0500)
Trenton Mercer

Weather History for KTTN - October, 2019

Change the Weather History Date:

Thursday, October 3, 2019

  Actual Average Record
Temperature  
Mean Temperature 61 °F 59 °F  
Max Temperature 66 °F 69 °F 88 °F (1898)
Min Temperature 55 °F 49 °F 34 °F (2003)
Degree Days  
Heating Degree Days 4 7  
Month to date heating degree days 3 19  
Since 1 July heating degree days 21 84  
Cooling Degree Days 0 1  
Month to date cooling degree days 22 3  
Year to date cooling degree days 1159 958  
Growing Degree Days 11 (Base 50)    
Moisture  
Dew Point 58 °F    
Average Humidity 96    
Maximum Humidity 100    
Minimum Humidity 81    
Precipitation  
Precipitation 0.22 in 0.15 in 1.30 in (1987)
Month to date precipitation 0.38 0.46  
Year to date precipitation 39.04 35.71  
Sea Level Pressure  
Sea Level Pressure 30.02 in    
Wind  
Wind Speed 8 mph ()    
Max Wind Speed 15 mph    
Max Gust Speed 20 mph    
Visibility 3.9 miles    
Events Rain    
T = Trace of Precipitation, MM = Missing Value Source: Averaged Metar Reports

Daily Weather History Graph

Daily Weather History Graph

Search for Another Location

Airport or City:

Astronomy

Oct. 03, 2019 Rise Set
Actual Time 6:57 AM EDT 6:38 PM EDT
Civil Twilight 6:30 AM EDT 7:05 PM EDT
Nautical Twilight 5:58 AM EDT 7:37 PM EDT
Astronomical Twilight 5:26 AM EDT 8:08 PM EDT
Moon 12:26 PM EDT (10/3) 10:15 PM EDT (10/3)
Length of Visible Light 12h 35m
Length of Day
11h 41m
Waxing Crescent, 29% of the Moon is Illuminated
Oct 3
Waxing Crescent
Oct 5
First Quarter
Oct 13
Full
Oct 21
Last Quarter
Oct 27
New

Hourly Weather History & Observations

Time (EDT) Temp. Dew Point Humidity Pressure Visibility Wind Dir Wind Speed Gust Speed Precip Events Conditions
12:53 AM 66.9 °F 63.0 °F 87% 29.94 in 10.0 mi NNE 10.4 mph - N/A   Overcast
1:53 AM 66.0 °F 61.0 °F 84% 29.96 in 10.0 mi North 9.2 mph - 0.00 in   Overcast
2:53 AM 64.0 °F 61.0 °F 90% 29.96 in 10.0 mi NE 11.5 mph - 0.02 in Rain Light Rain
3:12 AM 63.0 °F 61.0 °F 93% 29.98 in 10.0 mi NE 9.2 mph - 0.01 in Rain Light Rain
3:20 AM 62.1 °F 60.1 °F 93% 29.98 in 10.0 mi NE 11.5 mph - 0.02 in Rain Rain
3:53 AM 61.0 °F 60.1 °F 97% 29.96 in 10.0 mi NE 9.2 mph - 0.06 in Rain Light Rain
4:53 AM 57.9 °F 57.0 °F 97% 30.00 in 10.0 mi NE 9.2 mph - 0.01 in Rain Light Rain
5:53 AM 57.0 °F 55.9 °F 96% 30.02 in 10.0 mi NE 12.7 mph - 0.02 in Rain Light Rain
6:53 AM 57.0 °F 55.9 °F 96% 30.05 in 10.0 mi NNE 8.1 mph - 0.03 in Rain Light Rain
7:53 AM 55.9 °F 55.9 °F 100% 30.07 in 10.0 mi NNE 5.8 mph - 0.01 in Rain Light Rain
8:22 AM 57.0 °F 55.9 °F 96% 30.10 in 10.0 mi NE 6.9 mph - 0.01 in Rain Light Rain
8:53 AM 57.0 °F 55.9 °F 96% 30.08 in 10.0 mi ENE 15.0 mph - 0.01 in   Overcast
9:53 AM 57.0 °F 55.9 °F 96% 30.08 in 3.0 mi ENE 12.7 mph - 0.00 in Rain Light Rain
10:53 AM 57.0 °F 55.0 °F 93% 30.09 in 3.0 mi ENE 9.2 mph - 0.00 in Rain Light Rain
11:53 AM 55.9 °F 55.0 °F 97% 30.08 in 3.0 mi ENE 10.4 mph - 0.01 in Rain Light Rain
12:26 PM 55.9 °F 55.0 °F 97% 30.09 in 1.5 mi ENE 10.4 mph - 0.00 in Rain Light Rain
12:53 PM 55.9 °F 55.0 °F 97% 30.06 in 1.8 mi East 8.1 mph - 0.00 in Rain Light Rain
1:15 PM 55.9 °F 55.0 °F 97% 30.08 in 2.0 mi ENE 8.1 mph - 0.00 in   Overcast
1:28 PM 55.9 °F 55.0 °F 97% 30.08 in 1.8 mi ENE 6.9 mph - 0.00 in Rain Light Rain
1:45 PM 55.9 °F 55.0 °F 97% 30.08 in 2.0 mi NE 8.1 mph - 0.00 in   Overcast
1:53 PM 55.9 °F 55.9 °F 100% 30.06 in 1.8 mi NE 9.2 mph - 0.00 in   Overcast
2:29 PM 57.0 °F 55.9 °F 96% 30.07 in 2.0 mi ENE 8.1 mph - 0.01 in Rain Light Rain
2:39 PM 57.0 °F 55.9 °F 96% 30.07 in 1.8 mi ENE 8.1 mph - 0.01 in   Overcast
2:53 PM 57.0 °F 55.9 °F 96% 30.05 in 1.5 mi ENE 5.8 mph - 0.01 in   Overcast
3:02 PM 57.0 °F 55.9 °F 96% 30.06 in 1.5 mi ENE 6.9 mph - 0.00 in Rain Light Rain
3:30 PM 57.0 °F 57.0 °F 100% 30.06 in 2.0 mi ENE 6.9 mph - 0.01 in Rain Light Rain
3:45 PM 57.9 °F 57.0 °F 97% 30.05 in 1.8 mi ENE 6.9 mph - 0.01 in Rain Light Rain
3:53 PM 57.9 °F 57.0 °F 97% 30.04 in 2.0 mi ENE 5.8 mph - 0.01 in Rain Light Rain
4:16 PM 57.9 °F 57.9 °F 100% 30.05 in 1.8 mi East 5.8 mph - 0.00 in   Overcast
4:53 PM 59.0 °F 57.9 °F 96% 30.02 in 1.5 mi East 3.5 mph - 0.00 in   Overcast
5:24 PM 59.0 °F 59.0 °F 100% 30.04 in 2.5 mi East 8.1 mph - 0.01 in   Overcast
5:34 PM 59.0 °F 59.0 °F 100% 30.03 in 2.0 mi East 4.6 mph - 0.01 in   Overcast
5:53 PM 59.0 °F 57.9 °F 96% 30.01 in 2.5 mi ESE 9.2 mph - 0.01 in   Overcast
6:25 PM 59.0 °F 57.9 °F 96% 30.01 in 1.5 mi ESE 8.1 mph - N/A   Overcast
6:42 PM 59.0 °F 57.9 °F 96% 30.01 in 2.5 mi East 5.8 mph - N/A   Overcast
6:51 PM 59.0 °F 57.2 °F 94% 30.01 in 3.0 mi ESE 8.1 mph - N/A   Overcast
6:53 PM 59.0 °F 57.9 °F 96% 29.99 in 3.0 mi East 6.9 mph - N/A   Overcast
7:53 PM 59.0 °F 59.0 °F 100% 29.98 in 2.5 mi East 3.5 mph - N/A   Overcast
8:06 PM 59.0 °F 59.0 °F 100% 30.00 in 1.8 mi East 3.5 mph - N/A   Overcast
8:53 PM 60.1 °F 59.0 °F 96% 29.97 in 1.5 mi East 3.5 mph - N/A   Overcast
9:23 PM 60.1 °F 59.0 °F 96% 29.99 in 1.8 mi NE 4.6 mph - N/A   Overcast
9:50 PM 60.8 °F 59.0 °F 94% 29.98 in 2.0 mi NNE 5.8 mph - N/A   Overcast
9:53 PM 60.1 °F 59.0 °F 96% 29.96 in 2.0 mi NNE 4.6 mph - N/A   Overcast
10:03 PM 60.1 °F 59.0 °F 96% 29.97 in 1.8 mi ENE 4.6 mph - N/A   Overcast
10:16 PM 60.1 °F 59.0 °F 96% 29.97 in 2.0 mi NE 3.5 mph - N/A   Overcast
10:34 PM 60.1 °F 59.0 °F 96% 29.96 in 2.5 mi NNE 4.6 mph - N/A   Overcast
10:41 PM 60.1 °F 59.0 °F 96% 29.96 in 2.5 mi North 5.8 mph - N/A   Overcast
10:53 PM 60.1 °F 59.0 °F 96% 29.94 in 2.5 mi NNE 3.5 mph - 0.01 in Rain Light Rain
11:03 PM 60.1 °F 59.0 °F 96% 29.95 in 3.0 mi NNE 4.6 mph - 0.00 in Rain Light Rain
11:15 PM 60.1 °F 59.0 °F 96% 29.96 in 2.5 mi NNW 4.6 mph - 0.00 in   Overcast
11:42 PM 59.0 °F 59.0 °F 100% 29.95 in 3.0 mi NNW 5.8 mph - 0.00 in   Overcast
11:51 PM 59.0 °F 59.0 °F 100% 29.95 in 2.0 mi NNW 5.8 mph - 0.00 in   Overcast
11:53 PM 59.0 °F 59.0 °F 100% 29.94 in 2.0 mi NNW 4.6 mph - 0.00 in   Overcast